User: anonymous   Login
Location: Unspecified
(0.0000°N, 0.0000°E)
Time: 08:03:42
(UTC+00:00)
Language:

FAST 1 (USA 222) - Orbit

View from above orbital plane
View from above orbital plane
View from above satellite
View from above satellite

Ground track
Ground track

The orbit data is extracted from the following two-line orbital elements,

1 37227U 10062F   19345.82109985  .00000087  00000-0  19243-4 0  9992
2 37227  71.9694  23.1046 0018465 257.1809 102.7291 14.79620320 13506
Epoch (UTC): 11 December 2019 19:42:23
Eccentricity: 0.0018465
inclination: 71.9694°
perigee height: 617 km
apogee height: 643 km
right ascension of ascending node: 23.1046°
argument of perigee: 257.1809°
revolutions per day: 14.79620320
mean anomaly at epoch: 102.7291°
orbit number at epoch: 1350

The dashed part of the orbit path shows where the satellite is in the earth's shadow,  

DLR